Regional Weather Roundup
Issued by NWS Upton, NY

Current Version | Previous Version | Graphics & Text | Print | Product List | Glossary Off
Versions: 1 2 3 4 5 6 7 8 9 10 11 12 13 14 15 16 17 18 19 20 21 22 23 24 25 26 27 28 29 30 31 32 33 34 35 36 37 38 39 40 41 42 43 44 45 46 47 48 49 50

000
ASUS41 KOKX 010618
RWROKX

REGIONAL WEATHER ROUNDUP
NATIONAL WEATHER SERVICE NEW YORK NY
200 AM EDT WED JUL 01 2015

NOTE: "FAIR" INDICATES FEW OR NO CLOUDS BELOW 12,000 FEET WITH NO
SIGNIFICANT WEATHER AND/OR OBSTRUCTIONS TO VISIBILITY.

NYZ071-072-176-178-NJZ106-104-010700-
NEW YORK CITY METRO AREA


CITY           SKY/WX    TMP DP  RH WIND       PRES   REMARKS
CENTRAL PARK   CLOUDY    73  69  87 MISG      29.82F FOG
LAGUARDIA APRT CLOUDY    74  69  85 S9        29.79
KENNEDY INTL   CLOUDY    73  69  87 S14       29.81F
NEWARK/LIBERTY MOCLDY    74  70  87 SE3       29.79F
BRNX BOT. GARD   N/A     72  70  94 SE2       29.79F
TETERBORO      CLOUDY    74  69  85 S8        29.79
$$

NYZ177-179-078>081-010700-
LONG ISLAND NEW YORK

CITY           SKY/WX    TMP DP  RH WIND       PRES   REMARKS
FARMINGDALE    MOCLDY    72  69  90 S16G23    29.82F
ISLIP          MOCLDY    71  68  90 SE13      29.82F
SHIRLEY        CLOUDY    72  68  87 SE10      29.85F
WESTHAMPTON    MOCLDY    71  70  96 SE13G18   29.86
MONTAUK POINT    N/A     71  66  84 VRB6      29.90F
$$

NYZ052-065-067-010700-
HUDSON VALLEY

CITY           SKY/WX    TMP DP  RH WIND       PRES   REMARKS
WHITE PLAINS   CLOUDY    71  69  93 SE6       29.82F
NEWBURGH       MOCLDY    70  70 100 S6        29.82F
MONTGOMERY     CLOUDY    69  67  93 CALM      29.80
POUGHKEEPSIE   CLOUDY    71  68  90 E3        29.79F
ALBANY         LGT RAIN  67  64  90 S5        29.81
$$

NJZ001-105-106-008-010-013-015-019>022-104-010700-
NEW JERSEY

CITY           SKY/WX    TMP DP  RH WIND       PRES   REMARKS
NEWARK/LIBERTY MOCLDY    74  70  87 SE3       29.79F
TETERBORO      CLOUDY    74  69  85 S8        29.79
CALDWELL       CLOUDY    72  69  90 E5        29.80F
MORRISTOWN     CLOUDY    73  70  88 CALM      29.79F
SOMERVILLE     CLOUDY    72  70  93 CALM      29.77
SUSSEX         CLOUDY    69  67  93 CALM      29.80F FOG
ANDOVER          N/A     70  68  93 CALM      29.80F
TRENTON        CLOUDY    72  70  93 S6        29.77  FOG
MILLVILLE      CLOUDY    75  70  84 VRB6      29.79
ATLANTIC CITY  CLOUDY    75  71  87 S10       29.79F
WRIGHTSTOWN    CLOUDY    72  72  99 S3        29.76F
TOMS RIVER     MOCLDY    73  72  94 S6        29.79F
BELMAR         CLOUDY    73  68  83 S5        29.80F
$$

PAZ047>061-062-071-010700-
EASTERN PENNSYLVANIA

CITY           SKY/WX    TMP DP  RH WIND       PRES   REMARKS
PHILADELPHIA   CLOUDY    74  71  91 CALM      29.78F
ALLENTOWN      CLOUDY    72  68  88 SW5       29.78
SCRANTON       LGT RAIN  65  62  90 CALM      29.79F
$$

CTZ002-004>006-009-010-012-RIZ004-006-007-MAZ004-011-015-010700-
SOUTHERN NEW ENGLAND
 IN CT

CITY           SKY/WX    TMP DP  RH WIND       PRES   REMARKS
BRADLEY INTL   CLOUDY    69  62  78 SE5       29.87
HARTFORD       CLOUDY    70  65  84 S6        29.86
DANBURY        CLOUDY    70  65  84 VRB5      29.85F
WTRBRY/OXFORD  CLOUDY    70  63  78 SE12      29.86F
BRIDGEPORT     CLOUDY    72  68  87 NE6       29.84F
MERIDEN        CLOUDY    71  66  84 S7        29.86
NEW HAVEN      CLOUDY    70  67  90 E7        29.85
CHESTER        CLOUDY    66  66 100 SE3       29.88F
GROTON         PTCLDY    69  65  86 E9        29.88F
WILLIMANTIC    CLOUDY    68  62  81 VRB5      29.90

 IN RI

CITY           SKY/WX    TMP DP  RH WIND       PRES   REMARKS
PROVIDENCE     PTCLDY    66  63  90 CALM      29.92
BLOCK ISLAND   PTCLDY    66  63  88 SE10      29.90F
WESTERLY       CLEAR     67  64  90 SE6       29.90

 IN MA

CITY           SKY/WX    TMP DP  RH WIND       PRES   REMARKS
BOSTON         MOCLDY    65  62  90 SE6       29.93
WORCESTER      MOCLDY    65  59  81 SE8       29.93
WESTFIELD      CLOUDY    68  60  75 S3        29.88F
PROVINCETOWN   PTCLDY    63   7  11 S7        29.95F
NANTUCKET      PTCLDY    62  59  90 E7        29.94
$$

ANZ330-335-338-340-345-350-353-355-010700-
COASTAL MARINE OBSERVATIONS


STATION/POSITION TIME  SKY/WX   TEMP    WIND        PRES    VSBY  WAVE
                                AIR SEA DIR/SP/G                  HT/PER
                 (UTC)          (F)     (DEG/KT/KT) (MB)    (MI)  (FT/S)
NY HARB ENTRANCE 0550            71 68  170/ 14/ 16 1008.6          4/ 5
4S FIRE IS       0503               67                N/A           4/ 8
20S FIRE ISLAND  0550            70 66  160/ 16/ 19 1009.8          3/ 4
GREAT SOUTH BAY  0515            71 74  150/ 16/ 19   N/A
23SW MTP         0550            69 65  160/ 12/ 14 1011.4          3/ 8
HUDSON CANYON    NOT AVBL
KINGS POINT      0500            73 65  190/ 11/ 16 1009.3
CENTRAL LI SOUND NOT AVBL
EASTERN LI SOUND 0500            65     130/  8/ 12   N/A
ROBBINS REEF     0500            70     160/ 12/ 15 1008.6
$$


>>>>>>>>>>>>>>>>>>>>>>>>>>>> KEY <<<<<<<<<<<<<<<<<<<<<<<<<<<
>                                                          <
>     SKY/WX - SKY CONDITION/PRESENT WEATHER               <
>     TMP    - TEMPERATURE IN FAHRENHEIT                   <
>     DP     - DEWPOINT IN FAHRENHEIT                      <
>     RH     - RELATIVE HUMIDITY IN PERCENT                <
>     WIND   - DIRECTION AND SPEED IN MPH                  <
>     PRES   - MEAN SEA LEVEL PRESSURE IN INCHES OF HG     <
>     WCI    - WIND CHILL INDEX                            <
>     VSB    - VISIBILITY IN MILES                         <
>     HX     - HEAT INDEX                                  <
>     TC     - TEMPERATURE IN CELSIUS                      <
>     VRB    - VARIABLE WIND DIRECTION                     <
>                                                          <
>>>>>>>>>>>>>>>>>>>>>>>>>>>> KEY <<<<<<<<<<<<<<<<<<<<<<<<<<<




USA.gov is the U.S. government's official web portal to all federal, state and local government web resources and services.